Fort Madison, IA

10:23 PM CDT on July 23, 2017 (GMT -0500)
Fort Madison Municipal

Weather History for KFSW - March, 2014

Change the Weather History Date:

Monday, March 3, 2014

  Actual Average Record
Temperature  
Mean Temperature 3 °F -  
Max Temperature 15 °F 45 °F 73 °F (1992)
Min Temperature -9 °F 28 °F -9 °F (2014)
Degree Days  
Heating Degree Days 62    
Moisture  
Dew Point -9 °F    
Average Humidity 59    
Maximum Humidity 77    
Minimum Humidity 35    
Precipitation  
Precipitation 0.04 in - - ()
Sea Level Pressure  
Sea Level Pressure 30.46 in    
Wind  
Wind Speed 5 mph (North)    
Max Wind Speed 9 mph    
Max Gust Speed -    
Visibility 10 miles    
Events      
Averages and records for this station are not official NWS values.
T = Trace of Precipitation, MM = Missing Value Source: NWS Daily Summary

Daily Weather History Graph

Daily Weather History Graph

Search for Another Location

Airport or City:

Trip Planner

Search our weather history database for the weather conditions in past years. The results will help you decide how hot, cold, wet, or windy it might be!

Date:

Astronomy

Mar. 03, 2014 Rise Set
Actual Time 6:36 AM CST 5:58 PM CST
Civil Twilight 6:08 AM CST 6:26 PM CST
Nautical Twilight 5:37 AM CST 6:58 PM CST
Astronomical Twilight 5:05 AM CST 7:29 PM CST
Moon 7:43 AM CST (3/3) 9:03 PM CST (3/3)
Length of Visible Light 12h 17m
Length of Day
11h 22m
Waxing Crescent, 8% of the Moon is Illuminated
Mar 3
Waxing Crescent
Mar 8
First Quarter
Mar 16
Full
Mar 23
Last Quarter
Mar 30
New

Hourly Weather History & Observations

Time (CST) Temp. Windchill Dew Point Humidity Pressure Visibility Wind Dir Wind Speed Gust Speed Precip Events Conditions
12:15 AM -5.8 °F -22.4 °F -14.8 °F 65% 30.49 in 10.0 mi NNW 9.2 mph - N/A   Clear
12:35 AM -5.8 °F -18.4 °F -14.8 °F 65% 30.50 in 10.0 mi NW 5.8 mph - N/A   Clear
12:55 AM -5.8 °F -19.9 °F -14.8 °F 65% 30.50 in 10.0 mi NW 6.9 mph - N/A   Clear
1:15 AM -5.8 °F -19.9 °F -14.8 °F 65% 30.50 in 10.0 mi NW 6.9 mph - N/A   Clear
1:35 AM -7.6 °F -22.1 °F -14.8 °F 71% 30.49 in 10.0 mi NNW 6.9 mph - N/A   Clear
1:55 AM -7.6 °F -23.4 °F -14.8 °F 71% 30.49 in 10.0 mi NNW 8.1 mph - N/A   Clear
2:15 AM -7.6 °F -20.6 °F -14.8 °F 71% 30.49 in 10.0 mi NNW 5.8 mph - N/A   Clear
2:35 AM -7.6 °F -20.6 °F -14.8 °F 71% 30.48 in 10.0 mi NNW 5.8 mph - N/A   Clear
2:55 AM -7.6 °F -20.6 °F -16.6 °F 65% 30.48 in 10.0 mi NNW 5.8 mph - N/A   Clear
3:15 AM -7.6 °F -20.6 °F -16.6 °F 65% 30.48 in 10.0 mi North 5.8 mph - N/A   Clear
3:35 AM -9.4 °F -22.7 °F -16.6 °F 71% 30.49 in 10.0 mi North 5.8 mph - N/A   Clear
3:55 AM -9.4 °F -22.7 °F -16.6 °F 71% 30.49 in 10.0 mi North 5.8 mph - N/A   Clear
4:15 AM -9.4 °F -24.3 °F -16.6 °F 71% 30.50 in 10.0 mi North 6.9 mph - N/A   Clear
4:35 AM -9.4 °F -22.7 °F -16.6 °F 71% 30.50 in 10.0 mi NNW 5.8 mph - N/A   Clear
4:55 AM -9.4 °F -24.3 °F -16.6 °F 71% 30.50 in 10.0 mi NNW 6.9 mph - N/A   Clear
5:15 AM -9.4 °F -20.9 °F -16.6 °F 71% 30.51 in 10.0 mi NW 4.6 mph - N/A   Clear
5:35 AM -9.4 °F -18.6 °F -16.6 °F 71% 30.51 in 10.0 mi NW 3.5 mph - N/A   Clear
5:55 AM -9.4 °F -18.6 °F -16.6 °F 71% 30.51 in 10.0 mi NW 3.5 mph - N/A   Clear
6:15 AM -9.4 °F -20.9 °F -16.6 °F 71% 30.52 in 10.0 mi WNW 4.6 mph - N/A   Clear
6:35 AM -9.4 °F -20.9 °F -16.6 °F 71% 30.52 in 10.0 mi NW 4.6 mph - N/A   Clear
6:55 AM -9.4 °F -18.6 °F -16.6 °F 71% 30.53 in 10.0 mi WNW 3.5 mph - N/A   Clear
7:15 AM -9.4 °F -20.9 °F -16.6 °F 71% 30.52 in 10.0 mi NW 4.6 mph - N/A   Clear
7:35 AM -9.4 °F -18.6 °F -14.8 °F 77% 30.52 in 10.0 mi NW 3.5 mph - N/A   Clear
7:55 AM -7.6 °F -18.8 °F -14.8 °F 71% 30.52 in 10.0 mi NNW 4.6 mph - N/A   Clear
8:15 AM -5.8 °F -16.7 °F -14.8 °F 65% 30.53 in 10.0 mi NNW 4.6 mph - N/A   Clear
8:35 AM -5.8 °F -14.5 °F -13.0 °F 71% 30.53 in 10.0 mi NNW 3.5 mph - N/A   Clear
8:55 AM -2.2 °F - -11.2 °F 66% 30.53 in 10.0 mi Calm Calm - N/A   Clear
9:15 AM -0.4 °F - -11.2 °F 60% 30.53 in 10.0 mi Calm Calm - N/A   Clear
9:35 AM 1.4 °F -6.2 °F -11.2 °F 56% 30.53 in 10.0 mi North 3.5 mph - N/A   Clear
9:55 AM 1.4 °F - -11.2 °F 56% 30.53 in 10.0 mi Calm Calm - N/A   Clear
10:15 AM 3.2 °F - -11.2 °F 51% 30.53 in 10.0 mi Calm Calm - N/A   Clear
10:35 AM 3.2 °F - -11.2 °F 51% 30.54 in 10.0 mi Calm Calm - N/A   Clear
10:55 AM 6.8 °F - -9.4 °F 48% 30.54 in 10.0 mi Calm Calm - N/A   Clear
11:15 AM 6.8 °F - -9.4 °F 48% 30.54 in 10.0 mi Calm Calm - N/A   Clear
11:35 AM 6.8 °F - -9.4 °F 48% 30.53 in 10.0 mi Calm Calm - N/A   Clear
11:55 AM 8.6 °F - -9.4 °F 44% 30.52 in 10.0 mi Calm Calm - 0.03 in   Clear
12:15 PM 10.4 °F - -9.4 °F 41% 30.51 in 10.0 mi Calm Calm - 0.01 in   Clear
12:35 PM 10.4 °F 4.0 °F -5.8 °F 48% 30.51 in 10.0 mi East 3.5 mph - 0.01 in   Clear
12:55 PM 10.4 °F 2.2 °F -7.6 °F 44% 30.50 in 10.0 mi South 4.6 mph - 0.01 in   Clear
1:10 PM 10.4 °F - -7.6 °F 44% 30.50 in 10.0 mi Calm Calm - N/A   Clear
1:35 PM 12.2 °F 4.3 °F -7.6 °F 41% 30.49 in 10.0 mi SSW 4.6 mph - N/A   Clear
1:55 PM 12.2 °F 6.1 °F -7.6 °F 41% 30.48 in 10.0 mi South 3.5 mph - N/A   Clear
2:15 PM 12.2 °F - -9.4 °F 38% 30.47 in 10.0 mi Calm Calm - N/A   Clear
2:35 PM 14.0 °F - -9.4 °F 35% 30.46 in 10.0 mi Calm Calm - N/A   Clear
2:55 PM 15.8 °F - -5.8 °F 38% 30.46 in 10.0 mi Calm Calm - N/A   Clear
3:15 PM 14.0 °F 5.1 °F -5.8 °F 41% 30.46 in 10.0 mi South 5.8 mph - N/A   Clear
3:35 PM 14.0 °F 6.5 °F -4.0 °F 45% 30.45 in 10.0 mi SE 4.6 mph - N/A   Clear
3:55 PM 12.2 °F - -4.0 °F 48% 30.45 in 10.0 mi Calm Calm - N/A   Clear
4:15 PM 12.2 °F - -2.2 °F 53% 30.45 in 10.0 mi Calm Calm - N/A   Clear
4:35 PM 12.2 °F 6.1 °F -2.2 °F 53% 30.44 in 10.0 mi SE 3.5 mph - N/A   Clear
4:55 PM 12.2 °F 6.1 °F -2.2 °F 53% 30.43 in 10.0 mi SE 3.5 mph - N/A   Clear
5:15 PM 12.2 °F 4.3 °F -2.2 °F 53% 30.43 in 10.0 mi SE 4.6 mph - N/A   Clear
5:35 PM 10.4 °F 2.2 °F -2.2 °F 57% 30.43 in 10.0 mi SE 4.6 mph - N/A   Clear
5:50 PM 10.4 °F 2.2 °F -2.2 °F 57% 30.42 in 10.0 mi SE 4.6 mph - N/A   Clear
6:15 PM 10.4 °F 2.2 °F -2.2 °F 57% 30.41 in 10.0 mi SSE 4.6 mph - N/A   Clear
6:35 PM 10.4 °F 4.0 °F -2.2 °F 57% 30.40 in 10.0 mi SSE 3.5 mph - N/A   Clear
6:55 PM 10.4 °F 2.2 °F -2.2 °F 57% 30.39 in 10.0 mi SE 4.6 mph - N/A   Clear
7:15 PM 10.4 °F -0.4 °F -4.0 °F 52% 30.37 in 10.0 mi SE 6.9 mph - N/A   Clear
7:35 PM 10.4 °F 2.2 °F -5.8 °F 48% 30.37 in 10.0 mi SSE 4.6 mph - N/A   Clear
7:55 PM 10.4 °F 4.0 °F -4.0 °F 52% 30.38 in 10.0 mi South 3.5 mph - N/A   Clear
8:15 PM 10.4 °F 2.2 °F -4.0 °F 52% 30.37 in 10.0 mi SSE 4.6 mph - N/A   Clear
8:35 PM 8.6 °F 0.1 °F -4.0 °F 57% 30.37 in 10.0 mi SE 4.6 mph - N/A   Clear
8:55 PM 8.6 °F 0.1 °F -2.2 °F 62% 30.36 in 10.0 mi SE 4.6 mph - N/A   Clear
9:15 PM 10.4 °F -0.4 °F -2.2 °F 57% 30.36 in 10.0 mi SE 6.9 mph - N/A   Clear
9:35 PM 10.4 °F -2.4 °F -2.2 °F 57% 30.34 in 10.0 mi SE 9.2 mph - N/A   Clear
9:55 PM 10.4 °F -1.5 °F -0.4 °F 62% 30.33 in 10.0 mi SSE 8.1 mph - N/A   Clear
10:15 PM 10.4 °F 0.8 °F -0.4 °F 62% 30.32 in 10.0 mi SSE 5.8 mph - N/A   Clear
10:35 PM 10.4 °F 4.0 °F -0.4 °F 62% 30.33 in 10.0 mi SSE 3.5 mph - N/A   Clear
10:55 PM 10.4 °F 4.0 °F 1.4 °F 67% 30.34 in 10.0 mi SSE 3.5 mph - N/A   Clear
11:15 PM 12.2 °F - 1.4 °F 62% 30.34 in 10.0 mi Calm Calm - N/A   Mostly Cloudy
11:35 PM 12.2 °F - 3.2 °F 67% 30.33 in 10.0 mi Calm Calm - N/A   Mostly Cloudy
11:55 PM 12.2 °F - 3.2 °F 67% 30.33 in 10.0 mi Calm Calm - N/A   Overcast